| time (UTC) | temp F | wind direction | speed MPH | gust MPH | rain 1hr in | rain 24hr in | rain mn in | humidity % | barometer mb |
| 20260503032644 | 56 | 331 | 6.0 | 11.0 | 0.00 | 0.00 | 0.00 | 82 | 1008.7 |
| 20260503032220 | 56 | 319 | 6.0 | 11.0 | 0.00 | 0.00 | 0.00 | 82 | 1008.6 |
| 20260503032144 | 56 | 319 | 6.0 | 11.0 | 0.00 | 0.00 | 0.00 | 82 | 1008.6 |
| 20260503031644 | 56 | 336 | 6.0 | 10.0 | 0.00 | 0.00 | 0.00 | 82 | 1008.7 |
| 20260503031145 | 56 | 344 | 8.0 | 8.0 | 0.00 | 0.00 | 0.00 | 82 | 1008.6 |
| 20260503030644 | 56 | 331 | 4.0 | 7.0 | 0.00 | 0.00 | 0.00 | 82 | 1008.8 |
| 20260503025644 | 56 | 303 | 5.0 | 8.0 | 0.00 | 0.00 | 0.00 | 81 | 1008.8 |
| 20260503024644 | 56 | 322 | 2.0 | 8.0 | 0.00 | 0.00 | 0.00 | 81 | 1008.9 |
| 20260503024145 | 57 | 340 | 4.0 | 12.0 | 0.00 | 0.00 | 0.00 | 81 | 1008.8 |
| 20260503023644 | 57 | 312 | 7.0 | 12.0 | 0.00 | 0.00 | 0.00 | 81 | 1008.8 |
| 20260503023144 | 57 | 330 | 6.0 | 12.0 | 0.00 | 0.00 | 0.00 | 81 | 1008.7 |
| 20260503022644 | 57 | 333 | 7.0 | 11.0 | 0.00 | 0.00 | 0.00 | 81 | 1008.5 |
| 20260503022144 | 57 | 326 | 5.0 | 11.0 | 0.00 | 0.00 | 0.00 | 81 | 1008.4 |
| 20260503021645 | 57 | 294 | 6.0 | 15.0 | 0.00 | 0.00 | 0.00 | 81 | 1008.4 |
| 20260503020644 | 57 | 327 | 8.0 | 15.0 | 0.00 | 0.00 | 0.00 | 80 | 1008.5 |
| 20260503015646 | 57 | 296 | 7.0 | 12.0 | 0.00 | 0.00 | 0.00 | 80 | 1008.5 |
| 20260503015144 | 58 | 331 | 6.0 | 15.0 | 0.00 | 0.00 | 0.00 | 80 | 1008.6 |
| 20260503014644 | 58 | 319 | 11.0 | 15.0 | 0.00 | 0.00 | 0.00 | 80 | 1008.5 |
| 20260503014145 | 58 | 343 | 8.0 | 15.0 | 0.00 | 0.00 | 0.00 | 80 | 1008.5 |
| 20260503013645 | 58 | 327 | 10.0 | 15.0 | 0.00 | 0.00 | 0.00 | 80 | 1008.6 |
| 20260503013144 | 58 | 340 | 8.0 | 15.0 | 0.00 | 0.00 | 0.00 | 80 | 1008.6 |
| 20260503012644 | 58 | 351 | 10.0 | 15.0 | 0.00 | 0.00 | 0.00 | 80 | 1008.8 |
| 20260503012144 | 57 | 315 | 8.0 | 15.0 | 0.00 | 0.00 | 0.00 | 80 | 1008.8 |
| 20260503011644 | 57 | 322 | 7.0 | 15.0 | 0.00 | 0.00 | 0.00 | 80 | 1008.8 |
| 20260503011144 | 58 | 310 | 10.0 | 15.0 | 0.00 | 0.00 | 0.00 | 80 | 1008.8 |
| 20260503010644 | 58 | 336 | 5.0 | 15.0 | 0.00 | 0.00 | 0.00 | 80 | 1008.8 |
| 20260503005646 | 58 | 337 | 10.0 | 18.0 | 0.00 | 0.00 | 0.00 | 79 | 1008.8 |
| 20260503005144 | 58 | 326 | 8.0 | 18.0 | 0.00 | 0.00 | 0.00 | 80 | 1008.8 |
| 20260503004644 | 58 | 333 | 9.0 | 14.0 | 0.00 | 0.00 | 0.00 | 80 | 1008.9 |
| 20260503004147 | 58 | 329 | 10.0 | 16.0 | 0.00 | 0.00 | 0.00 | 80 | 1008.9 |
| 20260503003644 | 58 | 324 | 9.0 | 16.0 | 0.00 | 0.00 | 0.00 | 80 | 1008.8 |
| 20260503003143 | 58 | 323 | 10.0 | 16.0 | 0.00 | 0.00 | 0.00 | 80 | 1008.8 |
| 20260503002646 | 58 | 322 | 9.0 | 14.0 | 0.00 | 0.00 | 0.00 | 79 | 1008.8 |
| 20260503002145 | 58 | 323 | 9.0 | 18.0 | 0.00 | 0.00 | 0.00 | 79 | 1008.8 |
| 20260503001644 | 58 | 333 | 10.0 | 18.0 | 0.00 | 0.00 | 0.00 | 79 | 1008.8 |
| 20260503001144 | 58 | 341 | 11.0 | 18.0 | 0.00 | 0.00 | 0.00 | 79 | 1008.8 |
| 20260503000645 | 57 | 312 | 8.0 | 20.0 | 0.00 | 0.00 | 0.00 | 80 | 1008.9 |
| 20260502235646 | 57 | 313 | 11.0 | 20.0 | 0.00 | 0.00 | 0.00 | 80 | 1008.9 |
| 20260502235144 | 57 | 333 | 10.0 | 16.0 | 0.00 | 0.00 | 0.00 | 80 | 1008.9 |
| 20260502234644 | 57 | 312 | 9.0 | 18.0 | 0.00 | 0.00 | 0.00 | 80 | 1009.0 |
| 20260502233644 | 57 | 331 | 8.0 | 18.0 | 0.00 | 0.00 | 0.00 | 80 | 1009.1 |
| 20260502233144 | 57 | 337 | 12.0 | 16.0 | 0.00 | 0.00 | 0.00 | 79 | 1009.2 |
| 20260502232644 | 57 | 327 | 10.0 | 16.0 | 0.00 | 0.00 | 0.00 | 79 | 1009.3 |
| 20260502232144 | 58 | 317 | 9.0 | 16.0 | 0.00 | 0.00 | 0.00 | 79 | 1009.3 |
| 20260502231644 | 58 | 329 | 11.0 | 15.0 | 0.00 | 0.00 | 0.00 | 78 | 1009.4 |
| 20260502231147 | 58 | 327 | 8.0 | 18.0 | 0.00 | 0.00 | 0.00 | 78 | 1009.4 |
| 20260502230644 | 58 | 333 | 10.0 | 18.0 | 0.00 | 0.00 | 0.00 | 78 | 1009.5 |
| 20260502225144 | 59 | 347 | 10.0 | 16.0 | 0.00 | 0.00 | 0.00 | 79 | 1009.7 |
| 20260502224644 | 58 | 327 | 8.0 | 16.0 | 0.00 | 0.00 | 0.00 | 79 | 1009.7 |
| 20260502224147 | 58 | 324 | 8.0 | 17.0 | 0.00 | 0.00 | 0.00 | 78 | 1009.8 |
| 20260502223645 | 59 | 12 | 9.0 | 17.0 | 0.00 | 0.00 | 0.00 | 77 | 1009.8 |
| 20260502223144 | 59 | 312 | 10.0 | 17.0 | 0.00 | 0.00 | 0.00 | 77 | 1009.9 |
| 20260502222644 | 59 | 333 | 11.0 | 15.0 | 0.00 | 0.00 | 0.00 | 77 | 1010.0 |
| 20260502222143 | 59 | 336 | 10.0 | 15.0 | 0.00 | 0.00 | 0.00 | 78 | 1010.0 |
| 20260502221644 | 59 | 326 | 10.0 | 14.0 | 0.00 | 0.00 | 0.00 | 77 | 1010.1 |
| 20260502221148 | 60 | 340 | 9.0 | 16.0 | 0.00 | 0.00 | 0.00 | 78 | 1010.1 |
| 20260502220644 | 59 | 327 | 11.0 | 16.0 | 0.00 | 0.00 | 0.00 | 77 | 1010.2 |
| 20260502215645 | 59 | 330 | 10.0 | 14.0 | 0.00 | 0.00 | 0.00 | 77 | 1010.2 |
| 20260502215144 | 59 | 331 | 9.0 | 14.0 | 0.00 | 0.00 | 0.00 | 78 | 1010.2 |
| 20260502214644 | 59 | 337 | 8.0 | 14.0 | 0.00 | 0.00 | 0.00 | 78 | 1010.2 |
| 20260502213644 | 58 | 322 | 8.0 | 12.0 | 0.00 | 0.00 | 0.00 | 79 | 1010.2 |
| 20260502213144 | 58 | 340 | 7.0 | 12.0 | 0.00 | 0.00 | 0.00 | 79 | 1010.2 |
| 20260502212644 | 58 | 323 | 8.0 | 11.0 | 0.00 | 0.00 | 0.00 | 79 | 1010.2 |
| 20260502212145 | 58 | 323 | 6.0 | 11.0 | 0.00 | 0.00 | 0.00 | 79 | 1010.3 |
| 20260502211644 | 58 | 334 | 8.0 | 12.0 | 0.00 | 0.00 | 0.00 | 78 | 1010.4 |
| 20260502211144 | 58 | 336 | 5.0 | 12.0 | 0.00 | 0.00 | 0.00 | 78 | 1010.5 |
| 20260502210644 | 58 | 317 | 6.0 | 12.0 | 0.00 | 0.00 | 0.00 | 77 | 1010.6 |
| 20260502205646 | 59 | 347 | 6.0 | 10.0 | 0.00 | 0.00 | 0.00 | 78 | 1010.6 |
| 20260502205144 | 59 | 313 | 6.0 | 12.0 | 0.00 | 0.00 | 0.00 | 78 | 1010.6 |
| 20260502204643 | 59 | 309 | 7.0 | 12.0 | 0.00 | 0.00 | 0.00 | 77 | 1010.7 |
| 20260502204147 | 59 | 336 | 5.0 | 12.0 | 0.00 | 0.00 | 0.00 | 77 | 1010.8 |
| 20260502203644 | 59 | 298 | 5.0 | 10.0 | 0.00 | 0.00 | 0.00 | 77 | 1010.9 |
| 20260502203144 | 59 | 289 | 5.0 | 10.0 | 0.00 | 0.00 | 0.00 | 78 | 1010.9 |
| 20260502202644 | 58 | 324 | 6.0 | 10.0 | 0.00 | 0.00 | 0.00 | 78 | 1011.0 |
| 20260502202143 | 58 | 327 | 6.0 | 9.0 | 0.00 | 0.00 | 0.00 | 78 | 1011.0 |
| 20260502201644 | 58 | 301 | 4.0 | 11.0 | 0.00 | 0.00 | 0.00 | 78 | 1011.0 |
| 20260502201145 | 58 | 320 | 6.0 | 11.0 | 0.00 | 0.00 | 0.00 | 78 | 1011.1 |
| 20260502200643 | 58 | 312 | 7.0 | 11.0 | 0.00 | 0.00 | 0.00 | 78 | 1011.0 |
| 20260502195646 | 59 | 344 | 6.0 | 13.0 | 0.00 | 0.00 | 0.00 | 76 | 1011.0 |
| 20260502195144 | 60 | 322 | 8.0 | 13.0 | 0.00 | 0.00 | 0.00 | 74 | 1011.2 |
| 20260502194644 | 61 | 331 | 10.0 | 12.0 | 0.00 | 0.00 | 0.00 | 72 | 1011.3 |
| 20260502194147 | 62 | 340 | 5.0 | 14.0 | 0.00 | 0.00 | 0.00 | 72 | 1011.5 |
| 20260502193643 | 63 | 280 | 6.0 | 14.0 | 0.00 | 0.00 | 0.00 | 73 | 1011.5 |
| 20260502193144 | 62 | 323 | 8.0 | 14.0 | 0.00 | 0.00 | 0.00 | 74 | 1011.2 |
| 20260502192644 | 62 | 315 | 10.0 | 15.0 | 0.00 | 0.00 | 0.00 | 74 | 1011.3 |
| 20260502192144 | 62 | 334 | 8.0 | 15.0 | 0.00 | 0.00 | 0.00 | 74 | 1011.4 |
| 20260502191644 | 62 | 322 | 10.0 | 15.0 | 0.00 | 0.00 | 0.00 | 74 | 1011.5 |
| 20260502190643 | 62 | 322 | 10.0 | 18.0 | 0.00 | 0.00 | 0.00 | 74 | 1011.6 |
| 20260502185645 | 61 | 324 | 9.0 | 16.0 | 0.00 | 0.00 | 0.00 | 75 | 1011.7 |
| 20260502185143 | 61 | 316 | 9.0 | 16.0 | 0.00 | 0.00 | 0.00 | 75 | 1011.6 |
| 20260502184644 | 60 | 330 | 9.0 | 16.0 | 0.00 | 0.00 | 0.00 | 76 | 1011.6 |
| 20260502184151 | 60 | 326 | 12.0 | 16.0 | 0.00 | 0.00 | 0.00 | 74 | 1011.9 |
| 20260502184144 | 60 | 326 | 12.0 | 16.0 | 0.00 | 0.00 | 0.00 | 74 | 1011.9 |
| 20260502183643 | 60 | 308 | 9.0 | 15.0 | 0.00 | 0.00 | 0.00 | 77 | 1012.0 |
| 20260502183143 | 59 | 329 | 9.0 | 15.0 | 0.00 | 0.00 | 0.00 | 77 | 1012.0 |
| 20260502182644 | 59 | 355 | 7.0 | 15.0 | 0.00 | 0.00 | 0.00 | 76 | 1012.2 |
| 20260502182143 | 59 | 316 | 9.0 | 15.0 | 0.00 | 0.00 | 0.00 | 77 | 1012.1 |
| 20260502181644 | 58 | 320 | 8.0 | 14.0 | 0.00 | 0.00 | 0.00 | 78 | 1012.0 |
| 20260502181144 | 58 | 334 | 8.0 | 14.0 | 0.00 | 0.00 | 0.00 | 78 | 1012.0 |
| 20260502180644 | 58 | 319 | 10.0 | 16.0 | 0.00 | 0.00 | 0.00 | 79 | 1012.0 |
| 20260502164144 | 55 | 329 | 5.0 | 10.0 | 0.00 | 0.00 | 0.00 | 80 | 1012.2 |
| 20260502163644 | 55 | 319 | 3.0 | 10.0 | 0.00 | 0.00 | 0.00 | 80 | 1012.2 |
| 20260502163143 | 55 | 320 | 7.0 | 10.0 | 0.00 | 0.00 | 0.00 | 80 | 1012.2 |
| 20260502162644 | 54 | 340 | 8.0 | 13.0 | 0.00 | 0.00 | 0.00 | 80 | 1012.2 |
| 20260502162144 | 54 | 329 | 4.0 | 13.0 | 0.00 | 0.00 | 0.00 | 80 | 1012.4 |
| 20260502161644 | 54 | 294 | 7.0 | 13.0 | 0.00 | 0.00 | 0.00 | 80 | 1012.4 |
| 20260502161145 | 54 | 331 | 7.0 | 10.0 | 0.00 | 0.00 | 0.00 | 80 | 1012.4 |
| 20260502160643 | 54 | 312 | 6.0 | 10.0 | 0.00 | 0.00 | 0.00 | 80 | 1012.5 |
| 20260502152144 | 54 | 315 | 3.0 | 8.0 | 0.00 | 0.00 | 0.00 | 81 | 1012.6 |
| 20260502151643 | 54 | 319 | 3.0 | 8.0 | 0.00 | 0.00 | 0.00 | 81 | 1012.6 |
| 20260502151144 | 54 | 350 | 4.0 | 8.0 | 0.00 | 0.00 | 0.00 | 81 | 1012.6 |
| 20260502150644 | 54 | 347 | 4.0 | 9.0 | 0.00 | 0.00 | 0.00 | 81 | 1012.7 |
| 20260502130649 | 53 | 329 | 2.0 | 10.0 | 0.00 | 0.00 | 0.00 | 82 | 1012.6 |
| 20260502130643 | 53 | 329 | 2.0 | 10.0 | 0.00 | 0.00 | 0.00 | 82 | 1012.6 |
| 20260502123643 | 53 | 333 | 5.0 | 8.0 | 0.00 | 0.00 | 0.00 | 82 | 1012.8 |
| 20260502123143 | 53 | 316 | 3.0 | 8.0 | 0.00 | 0.00 | 0.00 | 82 | 1012.7 |
| 20260502122644 | 53 | 306 | 2.0 | 10.0 | 0.00 | 0.00 | 0.00 | 82 | 1012.7 |
| 20260502122143 | 53 | 336 | 7.0 | 10.0 | 0.00 | 0.00 | 0.00 | 82 | 1012.7 |
| 20260502121644 | 53 | 310 | 4.0 | 10.0 | 0.00 | 0.00 | 0.00 | 82 | 1012.7 |
| 20260502121146 | 53 | 334 | 7.0 | 10.0 | 0.00 | 0.00 | 0.00 | 81 | 1012.9 |
| 20260502120643 | 53 | 317 | 6.0 | 10.0 | 0.00 | 0.00 | 0.00 | 81 | 1012.8 |
| 20260502115645 | 53 | 316 | 6.0 | 11.0 | 0.00 | 0.00 | 0.00 | 81 | 1012.8 |
| 20260502115143 | 52 | 357 | 1.0 | 11.0 | 0.00 | 0.00 | 0.00 | 81 | 1012.8 |
| 20260502114643 | 52 | 22 | 4.0 | 11.0 | 0.00 | 0.00 | 0.00 | 81 | 1012.8 |
| 20260502113643 | 52 | 340 | 4.0 | 6.0 | 0.00 | 0.00 | 0.00 | 81 | 1012.8 |
| 20260502113143 | 52 | 344 | 3.0 | 15.0 | 0.00 | 0.00 | 0.00 | 80 | 1012.8 |
| 20260502112144 | 52 | 316 | 7.0 | 15.0 | 0.00 | 0.00 | 0.00 | 80 | 1012.7 |
| 20260502111644 | 52 | 338 | 9.0 | 14.0 | 0.00 | 0.00 | 0.00 | 81 | 1012.8 |
| 20260502111144 | 52 | 329 | 3.0 | 12.0 | 0.00 | 0.00 | 0.00 | 81 | 1012.8 |
| 20260502110644 | 52 | 12 | 4.0 | 12.0 | 0.00 | 0.00 | 0.00 | 81 | 1012.7 |
| 20260502105144 | 52 | 327 | 6.0 | 14.0 | 0.00 | 0.00 | 0.00 | 81 | 1012.8 |
| 20260502104643 | 53 | 331 | 5.0 | 14.0 | 0.00 | 0.00 | 0.00 | 81 | 1013.0 |
| 20260502104144 | 53 | 303 | 9.0 | 14.0 | 0.00 | 0.00 | 0.00 | 81 | 1013.0 |
| 20260502103643 | 53 | 337 | 4.0 | 14.0 | 0.00 | 0.00 | 0.00 | 81 | 1013.0 |
| 20260502103215 | 53 | 317 | 8.0 | 14.0 | 0.00 | 0.00 | 0.00 | 81 | 1013.0 |
| 20260502103143 | 53 | 317 | 8.0 | 14.0 | 0.00 | 0.00 | 0.00 | 81 | 1013.0 |
| 20260502102645 | 52 | 343 | 6.0 | 15.0 | 0.00 | 0.00 | 0.00 | 81 | 1013.1 |
| 20260502102143 | 53 | 345 | 7.0 | 15.0 | 0.00 | 0.00 | 0.00 | 81 | 1013.1 |
| 20260502101144 | 52 | 331 | 7.0 | 15.0 | 0.00 | 0.00 | 0.00 | 81 | 1013.1 |
| 20260502100643 | 52 | 319 | 4.0 | 15.0 | 0.00 | 0.00 | 0.00 | 81 | 1013.2 |
| 20260502100143 | 52 | 323 | 5.0 | 15.0 | 0.00 | 0.00 | 0.00 | 81 | 1013.3 |
| 20260502091144 | 53 | 357 | 4.0 | 7.0 | 0.00 | 0.00 | 0.00 | 81 | 1013.7 |
| 20260502090643 | 53 | 343 | 0.0 | 7.0 | 0.00 | 0.00 | 0.00 | 81 | 1013.8 |
| 20260502071144 | 53 | 320 | 7.0 | 12.0 | 0.00 | 0.00 | 0.00 | 81 | 1014.3 |
| 20260502070643 | 53 | 345 | 5.0 | 12.0 | 0.00 | 0.00 | 0.00 | 81 | 1014.3 |
| 20260502065646 | 53 | 330 | 7.0 | 11.0 | 0.00 | 0.00 | 0.00 | 81 | 1014.3 |
| 20260502065144 | 53 | 316 | 6.0 | 11.0 | 0.00 | 0.00 | 0.00 | 81 | 1014.4 |
| 20260502064643 | 53 | 327 | 5.0 | 11.0 | 0.00 | 0.00 | 0.00 | 81 | 1014.5 |
| 20260502064147 | 53 | 1 | 6.0 | 11.0 | 0.00 | 0.00 | 0.00 | 81 | 1014.4 |
| 20260502063735 | 53 | 306 | 7.0 | 11.0 | 0.00 | 0.00 | 0.00 | 81 | 1014.5 |
| 20260502063643 | 53 | 306 | 7.0 | 11.0 | 0.00 | 0.00 | 0.00 | 81 | 1014.5 |
| 20260502063144 | 53 | 343 | 6.0 | 11.0 | 0.00 | 0.00 | 0.00 | 81 | 1014.5 |
| 20260502062643 | 53 | 327 | 7.0 | 7.0 | 0.00 | 0.00 | 0.00 | 81 | 1014.6 |
| 20260502062143 | 53 | 323 | 2.0 | 6.0 | 0.00 | 0.00 | 0.00 | 81 | 1014.6 |
| 20260502061644 | 53 | 329 | 4.0 | 13.0 | 0.00 | 0.00 | 0.00 | 81 | 1014.6 |
| 20260502061144 | 53 | 312 | 6.0 | 13.0 | 0.00 | 0.00 | 0.00 | 81 | 1014.6 |
| 20260502060643 | 53 | 333 | 5.0 | 13.0 | 0.00 | 0.00 | 0.00 | 81 | 1014.6 |
| 20260502055643 | 53 | 315 | 7.0 | 11.0 | 0.00 | 0.00 | 0.00 | 81 | 1014.7 |
| 20260502055144 | 53 | 308 | 6.0 | 15.0 | 0.00 | 0.00 | 0.00 | 81 | 1014.7 |
| 20260502054735 | 53 | 5 | 6.0 | 15.0 | 0.00 | 0.00 | 0.00 | 81 | 1014.6 |
| 20260502054643 | 53 | 5 | 6.0 | 15.0 | 0.00 | 0.00 | 0.00 | 81 | 1014.6 |
| 20260502054144 | 53 | 303 | 6.0 | 15.0 | 0.00 | 0.00 | 0.00 | 81 | 1014.6 |
| 20260502053643 | 53 | 324 | 7.0 | 12.0 | 0.00 | 0.00 | 0.00 | 81 | 1014.6 |
| 20260502053143 | 53 | 336 | 3.0 | 12.0 | 0.00 | 0.00 | 0.00 | 81 | 1014.6 |
| 20260502052643 | 53 | 23 | 7.0 | 16.0 | 0.00 | 0.00 | 0.00 | 81 | 1014.6 |
| 20260502052144 | 53 | 306 | 8.0 | 16.0 | 0.00 | 0.00 | 0.00 | 81 | 1014.6 |
| 20260502051644 | 53 | 331 | 8.0 | 16.0 | 0.00 | 0.00 | 0.00 | 82 | 1014.6 |
| 20260502050644 | 53 | 324 | 5.0 | 14.0 | 0.00 | 0.00 | 0.00 | 81 | 1014.6 |
| 20260502045143 | 53 | 313 | 7.0 | 17.0 | 0.00 | 0.00 | 0.00 | 81 | 1014.5 |
| 20260502044644 | 53 | 315 | 6.0 | 18.0 | 0.00 | 0.00 | 0.00 | 81 | 1014.4 |
| 20260502044146 | 53 | 22 | 10.0 | 18.0 | 0.00 | 0.00 | 0.00 | 81 | 1014.4 |
| 20260502043735 | 53 | 0 | 8.0 | 18.0 | 0.00 | 0.00 | 0.00 | 81 | 1014.4 |
| 20260502043643 | 53 | 0 | 8.0 | 18.0 | 0.00 | 0.00 | 0.00 | 81 | 1014.4 |
| 20260502043143 | 53 | 347 | 10.0 | 16.0 | 0.00 | 0.00 | 0.00 | 81 | 1014.5 |
| 20260502042645 | 53 | 347 | 11.0 | 16.0 | 0.00 | 0.00 | 0.00 | 82 | 1014.4 |
| 20260502042146 | 53 | 334 | 9.0 | 16.0 | 0.00 | 0.00 | 0.00 | 82 | 1014.4 |
| 20260502041644 | 53 | 323 | 8.0 | 16.0 | 0.00 | 0.00 | 0.00 | 82 | 1014.3 |
| 20260502041144 | 53 | 7 | 8.0 | 16.0 | 0.00 | 0.00 | 0.00 | 82 | 1014.4 |
| 20260502040644 | 53 | 310 | 8.0 | 14.0 | 0.00 | 0.00 | 0.00 | 82 | 1014.4 |
| 20260502035643 | 53 | 310 | 8.0 | 13.0 | 0.00 | 0.00 | 0.00 | 82 | 1014.3 |
| 20260502035143 | 53 | 334 | 7.0 | 12.0 | 0.00 | 0.00 | 0.00 | 82 | 1014.4 |
| 20260502034643 | 53 | 334 | 9.0 | 12.0 | 0.00 | 0.00 | 0.00 | 81 | 1014.3 |
| 20260502034146 | 54 | 326 | 8.0 | 16.0 | 0.00 | 0.00 | 0.00 | 81 | 1014.4 |
| 20260502033643 | 53 | 344 | 9.0 | 16.0 | 0.00 | 0.00 | 0.00 | 81 | 1014.3 |
| 20260502033144 | 54 | 334 | 6.0 | 16.0 | 0.00 | 0.00 | 0.00 | 81 | 1014.3 |